Location: Madrid
(40.4167°N, 3.7036°W)
Time: 02:19:44
(UTC+00:00)

ISS - Pass Details

Date: 07 May 2026
Orbit: 414 x 424 km, 51.6° (Epoch: 15 May)

Event Time Altitude Azimuth Distance (km) Brightness Sun altitude
Rises 04:28:52 0° 301° (WNW) 2,363 -0.2 -7.3°
Reaches altitude 10° 04:31:02 10° 293° (WNW) 1,498 -1.3 -7.0°
Maximum altitude 04:34:11 39° 223° (SW) 644 -3.3 -6.5°
Drops below altitude 10° 04:37:21 10° 153° (SSE) 1,495 -1.0 -5.9°
Sets 04:39:31 0° 145° (SE) 2,357 0.1 -5.6°
